Cloud_Cover
96 14 0 0 1 95 82 100 100 100 100 100 100 100 100 100 100 100 93 100 100 100 100 100 100 100 100 100 100 100 100 100 100 100 100 100 100 100 100 97 100 100 100 100 100 100 100 100 72 86 16 88 81 100
57 17 0 0 21 100 100 100 100 100 100 100 100 100 100 100 100 100 100 100 100 100 56 100 100 100 90 100 100 100 100 100 100 100 100 100 100 100 100 100 100 100 100 100 100 100 100 100 100 54 92 10 80 100
5 1 0 0 60 100 100 100 100 100 100 100 100 100 100 100 100 100 100 100 75 48 20 28 28 96 100 72 97 100 100 100 100 100 100 100 100 100 100 100 100 100 100 100 100 100 100 100 100 48 6 21 100 100
0 5 0 0 99 100 100 100 100 100 100 100 93 100 100 100 41 80 72 82 20 31 68 75 61 64 70 96 99 100 100 100 100 100 100 100 100 100 100 100 100 100 100 100 100 100 100 100 95 59 84 59 100 100
0 5 5 3 100 100 100 100 100 100 100 35 75 69 98 100 100 96 63 99 87 100 87 48 22 29 60 100 100 100 100 100 100 100 100 100 100 100 100 100 100 100 100 100 100 100 100 100 94 98 99 99 83 100
5 5 0 4 100 100 100 100 100 1 0 1 6 52 41 52 6 100 19 15 77 73 100 80 33 90 93 95 100 100 100 100 100 100 100 100 100 100 100 100 100 100 100 100 100 100 100 100 100 100 91 74 96 88
5 5 4 21 100 100 100 100 67 0 0 0 2 4 12 6 43 22 60 27 50 45 14 100 98 100 98 76 100 100 100 100 100 100 100 100 100 100 100 100 100 100 100 100 100 100 100 100 100 100 100 100 79 100
5 23 0 15 100 100 100 100 84 0 0 0 0 3 5 5 5 5 6 8 76 4 5 71 86 100 100 100 100 100 100 98 100 100 100 100 100 100 100 100 100 100 100 100 100 100 99 100 100 100 100 85 67 100
53 9 2 5 93 100 100 99 56 0 0 0 0 0 2 3 6 31 3 15 75 12 32 96 98 100 85 100 100 100 100 100 100 84 100 100 100 100 100 100 100 100 100 100 100 100 100 100 100 100 100 100 100 100
54 53 5 5 61 100 100 33 0 0 0 0 0 7 4 0 10 48 87 99 99 100 98 100 85 88 68 99 100 100 96 100 100 100 98 98 100 100 100 100 100 99 99 100 100 100 100 100 100 100 100 100 100 100
13 9 6 5 73 100 99 20 0 0 0 0 0 17 11 1 66 97 83 68 39 72 94 74 76 28 55 61 94 88 97 100 99 100 100 100 100 99 100 100 100 100 100 100 92 90 100 100 100 100 82 100 100 100
4 5 5 2 78 100 67 2 0 9 0 0 2 8 8 66 72 32 5 7 51 42 4 5 54 81 56 40 79 92 95 83 21 14 100 100 100 100 100 100 100 100 100 100 100 100 72 4 21 70 96 100 100 100
5 5 5 5 41 33 0 0 10 0 1 5 0 1 36 5 5 6 8 5 1 0 0 3 51 46 65 26 41 81 95 77 5 54 36 24 93 88 70 100 100 100 100 100 100 95 5 0 0 9 45 74 100 100
5 6 10 5 83 2 0 0 5 61 6 0 4 4 4 45 27 6 4 0 0 0 5 5 10 4 16 29 5 5 5 5 5 68 35 5 5 16 78 75 38 97 100 100 100 100 99 26 4 0 3 5 50 85
5 26 6 48 23 0 0 0 1 32 1 1 0 4 5 5 11 12 5 4 4 5 6 12 9 34 28 5 5 5 9 4 4 4 3 5 5 5 5 5 16 17 6 50 58 86 96 29 5 5 1 3 5 5
48 26 11 5 4 6 0 12 8 0 2 6 3 7 7 72 69 22 5 5 39 11 16 31 48 8 5 5 5 5 32 84 27 5 4 5 5 5 5 5 5 5 4 1 2 4 1 15 66 5 4 1 76 11
36 69 6 5 3 5 0 0 0 0 0 5 5 23 76 14 98 94 95 60 8 11 66 31 51 95 90 64 89 5 100 100 100 17 1 5 78 100 66 5 5 5 5 5 0 0 0 3 3 4 3 0 2 46
32 20 5 5 91 52 47 36 0 0 1 5 5 62 100 78 57 12 78 51 36 100 100 95 75 100 70 100 88 13 100 100 82 4 5 35 74 42 0 2 5 47 7 5 5 5 5 0 0 0 0 0 0 15
72 5 5 6 93 9 0 0 0 1 0 4 13 97 100 99 100 100 95 97 47 100 94 99 90 100 100 88 40 100 100 44 24 5 5 4 1 0 0 4 17 70 78 22 5 5 5 3 2 1 0 0 5 5
7 5 5 7 60 0 0 0 0 0 0 15 94 99 100 100 100 91 98 94 98 98 100 100 100 100 100 100 100 100 100 100 100 49 5 2 0 0 0 1 5 71 87 78 5 18 47 5 0 5 5 1 0 5
5 5 49 26 11 0 0 0 0 18 92 100 100 100 100 100 100 100 100 100 92 100 100 100 100 100 100 100 100 100 100 100 93 100 70 1 0 0 5 5 5 5 100 100 98 62 41 36 5 3 5 5 2 5
5 5 5 5 0 5 3 0 5 5 5 61 22 62 98 98 71 53 88 98 57 91 94 98 100 100 100 100 100 94 42 40 94 55 0 2 0 0 0 0 4 54 99 97 94 96 80 69 7 5 13 94 10 5
5 9 5 5 0 0 3 3 4 7 6 5 15 9 5 12 93 48 11 6 85 100 96 98 79 83 80 66 92 33 77 27 6 9 95 19 5 4 0 2 19 100 88 16 5 55 84 83 97 90 88 100 72 5
5 14 6 0 0 3 5 5 5 5 5 5 20 5 9 20 7 5 5 12 89 21 100 100 100 5 5 1 1 55 32 5 76 88 70 56 69 11 54 82 20 4 5 4 77 98 100 100 82 54 89 100 80 62
45 17 2 30 0 3 5 5 5 5 5 5 78 98 24 5 5 5 5 5 32 59 88 87 4 0 1 0 0 7 12 78 92 84 92 10 15 100 100 100 100 16 5 5 5 5 56 97 99 93 96 100 96 72
84 6 1 2 3 4 5 6 92 63 5 22 73 96 26 6 5 5 5 12 5 4 4 5 0 0 0 3 5 52 92 87 13 38 61 86 42 70 100 100 100 100 23 6 6 17 80 90 99 95 58 23 86 80
50 1 0 2 5 33 25 66 99 60 92 100 75 90 64 11 5 3 3 3 0 0 0 0 5 5 15 62 86 100 10 4 88 72 74 18 100 12 34 87 100 97 82 95 92 28 75 100 100 90 75 88 56 26
0 0 0 2 5 50 71 51 18 83 90 45 5 87 49 5 10 5 5 0 4 5 5 5 5 5 28 20 1 2 4 7 14 93 100 86 24 92 100 22 100 96 100 77 91 33 12 100 100 81 78 76 96 62
5 5 4 5 4 4 5 5 5 5 5 44 31 28 22 72 100 12 1 3 10 3 4 0 0 3 7 0 3 0 0 0 2 45 86 100 100 63 90 15 32 100 100 69 5 5 6 76 89 68 88 54 38 49
3 5 5 4 3 5 5 2 3 65 8 48 30 17 45 93 74 33 4 0 0 0 0 0 0 4 1 0 0 0 0 0 0 4 6 14 36 66 58 30 89 82 60 77 24 8 5 82 98 82 15 8 14 81
5 44 5 3 4 4 4 1 2 34 35 51 37 49 100 94 78 100 44 0 0 0 0 0 0 0 0 0 0 0 0 0 0 0 0 0 0 0 2 8 50 71 41 8 18 78 5 5 5 5 5 5 5 5
5 25 5 3 5 4 5 5 5 5 6 6 13 5 7 34 13 95 51 1 0 0 0 0 0 0 0 0 0 0 0 0 0 0 0 0 0 1 5 6 5 5 5 5 5 5 5 5 5 5 5 5 5 5
44 22 5 5 13 19 22 27 73 41 58 70 6 5 5 5 5 46 99 4 0 0 0 0 0 2 0 0 0 0 0 0 0 0 0 0 0 0 0 0 0 1 2 5 8 10 5 5 5 5 5 5 5 5